WetterOnline ( https://www.wetteronline.de )

Wetter aktuell Riezlern

Aktuelles Wetter: Oberstdorf (812m)

6-stündlich | Neueste Meldungen
Ortszeit Temperatur Wetter
Sa, 19.09. 2:00 10.3° C wolkenlos
Fr, 18.09. 20:00 14.3° C wolkenlos
Fr, 18.09. 14:00 21.1° C wolkenlos
Fr, 18.09. 8:00 13.1° C bedeckt
Fr, 18.09. 2:00 14.3° C bedeckt
Do, 17.09. 20:00 17.2° C wolkenlos
Do, 17.09. 14:00 22.8° C leicht bewölkt
Do, 17.09. 8:00 11.5° C wolkig
Ortszeit Temperatur Wetter
Sa, 19.09. 5:00 8.4° C Nebel
Sa, 19.09. 4:50 8.4° C Nebel
Sa, 19.09. 4:40 8.4° C Nebel
Sa, 19.09. 4:30 8.9° C leicht bewölkt
Sa, 19.09. 4:20 8.9° C leicht bewölkt
Sa, 19.09. 4:10 9.2° C leicht bewölkt
Sa, 19.09. 4:00 8.7° C Nebel
Sa, 19.09. 3:30 9.3° C Nebel
Sa, 19.09. 3:00 9.4° C Nebel
Sa, 19.09. 2:30 9.4° C Nebel
Sa, 19.09. 2:00 10.3° C wolkenlos
Ortszeit Relative Feuchte Sichtweite
Sa, 19.09. 2:00 100% 9 km
Fr, 18.09. 20:00 91% 14 km
Fr, 18.09. 14:00 65% 30 km
Fr, 18.09. 8:00 95% 20 km
Fr, 18.09. 2:00 96% 18 km
Do, 17.09. 20:00 85% 30 km
Do, 17.09. 14:00 57% 45 km
Do, 17.09. 8:00 97% 17 km
Ortszeit Relative Feuchte Sichtweite
Sa, 19.09. 5:00 100% 0.2 km
Sa, 19.09. 4:50 100% -
Sa, 19.09. 4:40 100% -
Sa, 19.09. 4:30 100% 5.0 km
Sa, 19.09. 4:20 100% -
Sa, 19.09. 4:10 100% -
Sa, 19.09. 4:00 99% 0.3 km
Sa, 19.09. 3:30 100% 0.3 km
Sa, 19.09. 3:00 100% 0.3 km
Sa, 19.09. 2:30 100% 0.5 km
Sa, 19.09. 2:00 100% 9 km
Ortszeit Niederschlagsmenge Niederschlagsart
Sa, 19.09. 2:00 0.0 l/m2 in 6 Std. -
Fr, 18.09. 20:00 0.0 l/m2 in 12 Std. -
Fr, 18.09. 14:00 0.0 l/m2 in 6 Std. -
Fr, 18.09. 8:00 0.0 l/m2 in 12 Std. -
Fr, 18.09. 2:00 0.0 l/m2 in 6 Std. -
Do, 17.09. 20:00 0.0 l/m2 in 12 Std. -
Do, 17.09. 14:00 0.0 l/m2 in 6 Std. -
Do, 17.09. 8:00 0.0 l/m2 in 12 Std. -
Ortszeit Niederschlagsmenge Niederschlagsart
Sa, 19.09. 5:00 0.0 l/m2 in 1 Std. -
Sa, 19.09. 4:50 keine Meldung -
Sa, 19.09. 4:40 keine Meldung -
Sa, 19.09. 4:30 0.0 l/m2 in 1 Std. -
Sa, 19.09. 4:20 keine Meldung -
Sa, 19.09. 4:10 keine Meldung -
Sa, 19.09. 4:00 0.0 l/m2 in 1 Std. -
Sa, 19.09. 3:30 0.0 l/m2 in 1 Std. -
Sa, 19.09. 3:00 0.0 l/m2 in 1 Std. -
Sa, 19.09. 2:30 0.0 l/m2 in 1 Std. -
Sa, 19.09. 2:00 0.0 l/m2 in 1 Std. -
Ortszeit Stärke Spitze Richtung
km/h Bft. km/h Grad Sektor
Sa, 19.09. 2:00 4 1 11 190° S
Fr, 18.09. 20:00 0 0 25 - -
Fr, 18.09. 14:00 7 2 15 10° N
Fr, 18.09. 8:00 4 1 11 190° S
Fr, 18.09. 2:00 4 1 14 30° NO
Do, 17.09. 20:00 9 2 35 150° SO
Do, 17.09. 14:00 14 3 25 10° N
Do, 17.09. 8:00 4 1 7 140° SO
Ortszeit Stärke Spitze Richtung
km/h Bft. km/h Grad Sektor
Sa, 19.09. 5:00 4 1 7 200° S
Sa, 19.09. 4:50 4 1 - 200° S
Sa, 19.09. 4:40 4 1 - 190° S
Sa, 19.09. 4:30 0 0 4 - -
Sa, 19.09. 4:20 2 1 - 190° S
Sa, 19.09. 4:10 4 1 - 170° S
Sa, 19.09. 4:00 4 1 7 170° S
Sa, 19.09. 3:30 4 1 7 160° S
Sa, 19.09. 3:00 2 1 6 150° SO
Sa, 19.09. 2:30 4 1 7 160° S
Sa, 19.09. 2:00 4 1 7 190° S
Ortszeit Untergrenze Bedeckung Gattung
total tief tief mittel hoch
Sa, 19.09. 2:00 - 0/8 0/8 - - -
Fr, 18.09. 20:00 - 0/8 0/8 - - -
Fr, 18.09. 14:00 - 0/8 0/8 - - -
Fr, 18.09. 8:00 330 m 8/8 8/8 - - -
Fr, 18.09. 2:00 420 m 8/8 8/8 - - -
Do, 17.09. 20:00 - 0/8 0/8 - - -
Do, 17.09. 14:00 1800 m 2/8 1/8 - - -
Do, 17.09. 8:00 2700 m 8/8 3/8 - - -
Ortszeit Bedeckungsgrad in Achtel und Wolkenuntergrenze
Sa, 19.09. 5:00 2(<30m)
Sa, 19.09. 4:50 2(<30m)
Sa, 19.09. 4:40 1(<30m)
Sa, 19.09. 4:30 2(<30m)
Sa, 19.09. 4:20 2(<30m)
Sa, 19.09. 4:10 3(<30m)
Sa, 19.09. 4:00 2(<30m)
Sa, 19.09. 3:30 5(<30m)
Sa, 19.09. 3:00 2(30m)
Sa, 19.09. 2:30 keine Wolken
Sa, 19.09. 2:00 keine Wolken
Ortszeit Stationsdruck (hPa) Tendenz (hPa in 3 Std.)
Sa, 19.09. 2:00 928 - 0,9
Fr, 18.09. 20:00 929 + 0,5
Fr, 18.09. 14:00 929 - 0,8
Fr, 18.09. 8:00 929 + 1,1
Fr, 18.09. 2:00 929 - 0,7
Do, 17.09. 20:00 928 + 0,5
Do, 17.09. 14:00 929 - 0,9
Do, 17.09. 8:00 929 - 0,1
Ortszeit Stationsdruck (hPa) Tendenz (hPa in 3 Std.)
Sa, 19.09. 5:00 927 - 1,0
Sa, 19.09. 4:50 927 keine Meldung
Sa, 19.09. 4:40 927 keine Meldung
Sa, 19.09. 4:30 927 - 1,0
Sa, 19.09. 4:20 927 keine Meldung
Sa, 19.09. 4:10 927 keine Meldung
Sa, 19.09. 4:00 927 - 1,0
Sa, 19.09. 3:30 928 - 0,9
Sa, 19.09. 3:00 928 - 1,0
Sa, 19.09. 2:30 928 - 1,0
Sa, 19.09. 2:00 928 - 0,9
Ortszeit Schneehöhe (cm)
Sa, 19.09. 2:00 0
Fr, 18.09. 20:00 0
Fr, 18.09. 14:00 0
Fr, 18.09. 8:00 0
Fr, 18.09. 2:00 0
Do, 17.09. 20:00 0
Do, 17.09. 14:00 0
Do, 17.09. 8:00 0
Ortszeit Schneehöhe (cm)
Sa, 19.09. 5:00 0
Sa, 19.09. 4:50 0
Sa, 19.09. 4:40 0
Sa, 19.09. 4:30 0
Sa, 19.09. 4:20 0
Sa, 19.09. 4:10 0
Sa, 19.09. 4:00 0
Sa, 19.09. 3:30 0
Sa, 19.09. 3:00 0
Sa, 19.09. 2:30 0
Sa, 19.09. 2:00 0
Link zu dieser Seite / Seite empfehlen

Das Wetter in ...